Location: ????????
(32.2403°N, 35.4961°E)
Time: 21:28:07
(UTC+00:00)

Daily predictions for brighter satellites

Satellite Brightness Start Highest point End
(mag) Time Altitude Azimuth Time Altitude Azimuth Time Altitude Azimuth
Cosmos 2360 4.3 14:52:21 10° S 14:57:55 59° ESE 15:03:31 10° NNE
Cosmos 2278 3.7 14:53:48 10° SSW 14:59:26 77° ESE 15:05:08 10° NNE
Delta 7925 Rocket 4.5 14:57:42 10° WSW 15:02:36 46° S 15:08:38 10° ESE
Intelsat 5-3 Rocket 4.0 15:00:37 10° SW 15:03:20 18° S 15:05:14 10° SE
Cosmos 1238 Rocket 4.0 15:00:25 10° NNW 15:03:50 39° W 15:06:48 10° SSW
Cosmos 923 Rocket 4.3 15:01:48 10° SSW 15:07:00 71° WNW 15:12:13 10° NNE
ISS -1.4 15:06:59 10° SE 15:07:28 10° SE 15:07:55 10° ESE
Cosmos 1356 Rocket 4.4 15:03:49 10° SSW 15:07:50 50° W 15:11:57 10° N
IRS-1C Rocket 4.1 15:02:48 10° SSE 15:08:04 85° ENE 15:13:22 10° NNW
YAOGAN 6 4.1 15:08:17 10° ESE 15:10:22 15° ENE 15:12:27 10° NE
BREEZE-M DEB (TANK) 4.0 15:08:10 10° S 15:11:44 39° ESE 15:22:35 10° NE
CZ-3 Stage 3 1.6 15:11:01 10° W 15:13:46 51° S 15:15:32 10° ESE
SKYMED 2 4.0 15:12:37 10° NNE 15:16:43 40° E 15:20:47 10° S
ATLAS 5 CENTAUR R/B 3.9 15:15:45 10° SSE 15:16:55 11° SE 15:17:52 10° ESE
Cosmos 2034 Rocket 4.3 15:14:28 10° N 15:20:33 45° E 15:26:36 10° SSE
Cosmos 1805 Rocket 4.2 15:16:35 10° NNW 15:20:53 60° W 15:25:12 10° S
CZ-4 R/B 2.6 15:19:14 10° ESE 15:22:28 22° ENE 15:25:40 10° NNE
BREEZE-M DEB (TANK) 4.1 15:16:07 10° WSW 15:23:43 38° NW 15:26:58 10° NE
SeaSat 1 3.4 15:20:44 10° ESE 15:24:47 26° ENE 15:28:51 10° N
Okean-O 2.6 15:21:29 10° SSE 15:25:50 62° ENE 15:30:13 10° N
PSLV R/B 3.5 15:23:51 10° NW 15:26:08 30° NNE 15:27:14 21° ENE
Lacrosse 4 Rocket 3.9 15:24:19 10° WSW 15:27:08 18° WNW 15:29:57 10° NNW
YAOGAN 3 4.5 15:27:26 10° SSE 15:31:45 71° ENE 15:36:06 10° N
Envisat 2.9 15:33:45 10° SSE 15:38:46 68° ENE 15:43:49 10° N
Cosmos 1933 3.5 15:36:06 10° SSE 15:40:01 47° E 15:43:55 10° NNE
CSL-04 Rocket 4.2 15:35:26 10° SE 15:40:09 33° ENE 15:44:51 10° N
Tsikada Rocket 4.0 15:33:59 10° S 15:40:14 65° E 15:46:34 10° NNE
Cosmos 1151 Rocket 3.3 15:40:35 10° SSW 15:44:54 73° W 15:49:17 10° N
Cosmos 1606 2.9 15:43:07 10° SSE 15:46:43 44° E 15:49:10 18° NNE
Cosmos 1633 Rocket 3.2 15:42:59 10° N 15:47:24 77° W 15:51:49 10° S
Cosmos 2228 Rocket 3.4 15:43:15 10° SSE 15:47:27 44° E 15:51:33 11° NNE
Cosmos 2360 Rocket 4.2 15:46:48 10° ESE 15:47:00 10° ESE 15:47:00 10° ESE
Cosmos 1862 3.9 15:46:06 10° NNW 15:50:01 59° W 15:53:57 10° S
SL-8 R/B 4.4 15:46:51 10° WSW 15:51:30 47° NW 15:54:42 19° NNE
SL-16 R/B 2.6 15:48:09 10° S 15:53:23 40° ESE 15:56:11 24° NE
Cosmos 1328 Rocket 4.5 15:50:08 10° SSW 15:54:25 50° W 15:58:42 10° N
Cosmos 1980 Rocket 3.0 15:48:57 10° SW 15:54:25 51° WNW 15:59:58 10° N
Cosmos 1515 Rocket 3.6 15:54:18 10° S 15:58:42 78° W 16:03:05 10° N
ATLAS 2AS CENTAUR R/B 4.2 15:54:19 10° SSE 15:59:19 20° ESE 15:59:19 20° ESE
Cosmos 2322 Rocket 2.6 15:55:33 10° S 16:00:41 39° ESE 16:02:27 31° ENE
Cosmos 1933 Rocket 3.5 15:59:20 10° N 16:03:36 57° E 16:07:53 10° SSE
COSMO-SKYMED 1 3.5 16:00:28 10° N 16:04:40 49° WNW 16:08:50 10° SSW
Cosmos 2227 Rocket 4.4 16:03:33 10° NW 16:08:14 27° WSW 16:12:55 10° SSW
Cosmos 1371 Rocket 3.8 16:05:00 10° NNW 16:10:11 79° ENE 16:15:20 10° SSE
Aurora 2 Rocket 4.0 16:07:36 10° SW 16:10:44 23° SSE 16:11:37 22° SE
Cosmos 1932 4.4 16:14:45 10° NNW 16:21:20 82° ENE 16:27:51 10° SSE
YAOGAN 1 2.5 16:17:39 10° SSE 16:21:58 87° W 16:26:18 10° NNW
Cosmos 1400 Rocket 2.7 16:18:40 10° S 16:22:46 83° E 16:22:59 78° NE
Cosmos 2263 Rocket 3.4 16:19:36 10° N 16:22:22 25° NNE 16:22:22 25° NNE
COSMOS 2455 2.9 16:20:02 10° S 16:25:51 55° ESE 16:26:39 51° E
DELTA 2 R/B (1) 3.8 16:21:58 10° WSW 16:27:32 63° NNW 16:28:48 49° NNE
GPS 2-04 Rocket1 4.0 16:30:16 10° WNW 16:32:18 29° NW 16:32:18 29° NW
Hubble Space Telescope 1.8 16:30:05 10° WSW 16:33:21 37° SSW 16:33:21 37° SSW
Cosmos 1048 Rocket 4.3 16:28:52 10° S 16:32:58 48° SE 16:32:58 48° SE
ISS -1.6 16:40:32 10° WSW 16:42:12 26° WSW 16:42:12 26° WSW
CZ-4 R/B 3.9 16:54:08 10° SSW 16:57:21 22° W 17:00:32 10° NW
H-2A R/B 4.1 15:39:38 10° W 16:58:10 81° SSW 17:02:17 48° ESE
SeaSat 1 4.1 16:57:44 10° S 17:02:07 32° WSW 17:06:30 10° NW
Cosmos 2360 Rocket 4.1 17:26:57 10° SSW 17:28:50 22° SW 17:28:50 22° SW
SL-16 R/B 4.2 17:33:09 10° WSW 17:37:34 23° WNW 17:38:08 23° NW
Cosmos 2322 Rocket 4.2 17:40:25 10° WSW 17:44:20 23° WNW 17:44:20 23° WNW
ATLAS 2AS CENTAUR R/B 3.8 17:41:54 10° SW 17:46:50 44° SW 17:46:50 44° SW
ATLAS 5 CENTAUR R/B 4.1 17:46:35 10° WSW 18:35:31 - ESE 17:53:15 43° S
